Погода в Нелькане

Погода в Нелькане : погода сейчас, прогноз погоды и архив. Всё, что Вы хотите узнать о погоде в Нелькане!

Поиск расширенной информации на нашем сайте:

Другие новости

Новости СМИ2

Главная страница сайта

Новости сайта

03.07.2017

Напоминаем, что на нашем специализированном сайте Метеоцентр.Азия вы можете получить высокодетализированные автоматические прогнозы погоды по пунктам России, СНГ и мира в авиационном формате (включающие направление и скорость ветра, видимость, явления погоды, количество и форму облачности, нижнюю и верхнюю границу облачности).

Рекомендуем: полировка кузова автомобиля

Погода в Нелькане - сегодня

Время (UTC), дата Ветер
(°,м/с) 
Видим.   Явления Облачность Т
(°С)
Тd
(°С)
f(%) Тe
(°С)
Pmin
(гПа)
dP
(гПа)
Po
(мм)
O2
(г/м3)
Тmin Tmax R s Состояние
почвы
09 13.01.18 360 (С) 20000 м    ясно 
-42.8 -46.2 69 -44  1023.6  -1.1  732  352    -40.3       
12 13.01.18 020 (С) 20000 м    ясно 
-41.9 -45 72 -43  1022.2  -1.2  732  350           
15 13.01.18 050 (СВ) 20000 м    ясно 
-42.9 -46.2 70 -44  1021.7  -0.6  731  352           
18 13.01.18 050 (СВ) 20000 м    ясно 
-41.7 -45 70 -47  1021.1  -0.4  731  350           
21 13.01.18 050 (СВ) 20000 м    10/0 средняя 
[As op]
-39.4 -42.9 69 -44  1019.3  -1.2  730  346  -42.9      42  равномерный
сухой снег
100% 
00 14.01.18 050 (СВ) 20000 м    10/0 средняя, верхняя 
[Ac trans|Cs]
-37.3 -40.1 75 -38  1018.9  730  343  -42.9         
03 14.01.18 070 (В) 20000 м    10/0 средняя 
[As op]
-35.5 -38.4 75 -40  1017.8  -0.8  729  340           
06 14.01.18 200 (Ю) 4000 м  слаб. снег  10/0 средняя 
[As op]
-33.5 -36.6 74 -34  1017.4  729  337           
09 14.01.18 230 (ЮЗ) 20000 м  в посл. час снег  10/0 средняя, верхняя 
[Ac trans|Cs]
-33.1 -36 75 -34  1018.1  0.8  730  337    -33.1     
12 14.01.18 230 (ЮЗ) 20000 м  {снег}  10/0 верхняя 
[Cs]
-33 -36 74 -34  1019  0.9  731  337           
15 14.01.18 250 (З) 20000 м    ясно 
-34 -36.8 76 -35  1019.3  0.1  731  338           
18 14.01.18 тихо ()   20000 м    ясно 
-37.7 -40.5 75 -38  1020.5  0.5  731  344           
21 14.01.18 тихо ()   20000 м    4/0 верхняя 
[Ci sp]
-38.2 -40.9 75 -38  1020.5  731  344  -38.2      42  равномерный
сухой снег
100% 
00 15.01.18 тихо ()   20000 м    6/0 верхняя 
[Ci sp]
-40 -42.8 75 -40  1020.8  -0.1  731  347  -40         
03 15.01.18 020 (С) 20000 м    8/0 средняя, верхняя 
[Ac trans|Ci sp]
-37 -39.8 75 -38  1019.9  -0.3  734  344           
06 15.01.18 тихо ()   20000 м    8/0 средняя, верхняя 
[Ac trans|Ci sp]
-34 -36.8 76 -34  1018.1  -1.2  730  338           
09 15.01.18 тихо ()   20000 м    6/0 верхняя 
[Ci sp]
-35.5 -38.4 75 -36  1018.8  0.2  730  340    -34       
12 15.01.18 тихо ()   20000 м    3/0 верхняя 
[Ci sp]
-37.7 -40.5 75 -38  1019.5  0.3  730  343           
15 15.01.18 тихо ()   20000 м    ясно 
-40.3 -43.3 73 -40  1019.8  -0.1  730  347           
18 15.01.18 тихо ()   20000 м    ясно 
-41 -43.8 75 -41  1020.2  0.2  730  348           
21 15.01.18 тихо ()   20000 м    ясно 
-42.2 -45.6 69 -42  1020.8  0.4  731  350  -42.2      42  равномерный
сухой снег
100% 
00 16.01.18 тихо ()   20000 м    ясно 
-42.4 -45.6 71 -42  1020.9  0.1  731  351  -42.4         
03 16.01.18 тихо ()   20000 м    ясно 
-36.1 -39.7 69 -36  1019.7  731  341           
06 16.01.18 020 (С) 20000 м    3/0 верхняя 
[Ci sp]
-34.6 -38.1 71 -39  1019.3  -0.2  731  339           
09 16.01.18 020 (С) 20000 м    3/0 верхняя 
[Ci sp]
-35.5 -39 70 -37  1019.5  731  340    -34.6       
Время (UTC), дата Ветер
(°,м/с) 
Видим.   Явления Облачность Т
(°С)
Тd
(°С)
f(%) Тe
(°С)
Pmin
(гПа)
dP
(гПа)
Po
(мм)
O2
(г/м3)
Тmin Tmax R s Состояние
почвы

Для получения пояснительной информации подведите курсор к названию столбца.

ПОГОДА в Нелькане - архив

Всё, что Вы хотите узнать о погоде в Нелькане - удобно и подробно!

Выберите нужную дату (начиная с 1 января 2015* года) и нажмите кнопку "Найти".
Будут отображены архивные сводки погоды по пункту Нелькан, начиная с указанной даты.


Отображать данные в формате CSV (для использования в таблицах Excel)


Внимание! Наш архив погоды предназначен исключительно для личного некоммерческого использования в познавательных целях. Если Вам необходимы официальные справки о состоянии погоды (для производственных, юридических, коммерческих и т.п. целей), обращайтесь в органы Росгидромета.

*Примечание: данная дата относится к архиву по метеостанциям СССР (Россия, СНГ, Балтия).
Архив по метеостанциям Зарубежной Европы и Азии (кроме Китая) хранится 10 дней, по другим регионам земного шара (Китай, Африка, Америка, Австралия, Океания) - 1 день.

Нелькан - район местоположения метеостанции


Название, широта, долгота, высота метеостанции:
Нелькан 57.7°ш. 136.2°д. 305 м над ур. моря [Российская Федерация]

Дополнительная информация

В oтличие oт бoльшинства пoгoдных сайтoв мы публикуем пoдрoбную метеoинфoрмацию в детальнoм прoфессиoнальнoм фoрмате.

Характеристики температуры и влажнoсти вoздуха измеряются на высoте 2 м в тени вдали oт зданий и деревьев.
Скoрoсть ветра измеряется на высoте 10 м (на урoвне рoста челoвека скoрoсть ветра ниже в 1.5-2 раза). Если метеoстанция нахoдится в гoрoде или в лесу, тo скoрoсть ветра занижена на 2-4 м/с пo сравнению с oткрытым местoм. Скoрoсть ветра над акватoриями крупных рек и oзёр, а также на вершинах хoлмoв на 2-5 м/с выше, чем в oбычных услoвиях.
Атмoсфернoе давление в разных тoчках местнoсти мoжет значительнo oтличаться oт давления на метеoстанции, в зависимoсти oт услoвий рельефа (при пoдъёме на 10 м давление пoнижается примернo на 1 мм рт.ст.).